Weather in Krasnoe

Russia / Voronezh Oblast     51°10′07″N   41°28′31″E
temp.,
°C
wind,
m/s
gust,
m/s
humid.,
%
clouds,
%
prec.,
mm/h
press.,
hPa
HPBL,
m
3 march, wed
wed300:000wnw5998100 0.2 1009448
03:00−1nw41094100 0.2 1010325
06:00−3nw5119430 0.0 1011326
09:00−1nnw6108958 0.1 1013805
12:00−1nnw7986100 0.2 1015974
15:00−2nw7108294 0.2 1017832
18:00−4wnw5128725 0.0 1018382
21:00−5w4129013 0.0 1019284
4 march, thu
thu400:00−4w4109556 0.0 1017315
03:00−1wsw6129278 0.1 1016567
06:00−2wsw6139298 0.0 1014553
09:00−1wsw7149096 0.0 1013583
12:00+1wsw815877 0.0 1011688
15:00+2wsw815803 0.0 1009788
18:00+1wsw616740 0.0 1007558
21:00+2sw8187736 0.0 1006627
5 march, fri
fri500:00+2wsw7168498 0.0 1005641
03:00+2wsw7159499 0.3 1004544
06:00+2wsw61596100 0.3 1004602
09:00+2w61393100 0.5 1005849
12:00+3w61177100 0.1 10061107
15:00+3wnw4777100 0.1 1008918
18:000nne3598100 0.7 1009270
21:00−2nne4795100 2.4 1010364
6 march, sat
sat600:00−2nne5795100 1.6 1010397
03:00−3n5893100 2.4 1011420
06:00−4n589098 0.0 1012380
09:00−5n468798 0.1 1014340
12:00−3nnw467767 0.0 1016649
15:00−2nnw456633 0.0 1016794
18:00−4nnw24770 0.0 1016165
21:00−5e11820 0.0 101743
7 march, sun
sun700:00−5ese118256 0.0 101724
03:00−5se129477 0.4 1017173
06:00−6wsw1296100 0.1 1018110
09:00−5wsw598376 0.1 1017679
12:00−3wsw8126366 0.0 10151151
15:00−1sw9165983 0.0 10121290
18:00−2sw8166589 0.0 10091122
21:00−2sw8166486 0.0 1008999